AMX672 MMMX-MGGT

Flight info

Callsign AMX672
Flight time N/A
Altitude 41000
Route UKUNO3A UKUNO UT108 VER UA552 AUR
Aircraft B772/H-SDE2E3FGHIJ5LORVWXY/LB1D1

Departure

Time 2026-04-30 22:16
Airport Mexico City Benito Juárez International Airport (MMMX)

Arrival

Time N/A
Airport La Aurora International Airport (MGGT)
Time Latitude Longitude Altitude Speed Heading
2026-04-30 21:42 19.43637 -99.07886 7307 ft 0 kts 292°
2026-04-30 22:04 19.43637 -99.07884 7307 ft 0 kts 292°
2026-04-30 22:04 19.43633 -99.07875 7307 ft 3 kts 292°
2026-04-30 22:04 19.43619 -99.07839 7306 ft 3 kts 292°
2026-04-30 22:05 19.43612 -99.07819 7307 ft 3 kts 289°
2026-04-30 22:05 19.43607 -99.07799 7307 ft 3 kts 279°
2026-04-30 22:05 19.43606 -99.07777 7307 ft 3 kts 258°
2026-04-30 22:05 19.43608 -99.07768 7307 ft 0 kts 241°
2026-04-30 22:08 19.43596 -99.07788 7307 ft 7 kts 238°
2026-04-30 22:08 19.43559 -99.07857 7307 ft 14 kts 240°
2026-04-30 22:08 19.43498 -99.07969 7307 ft 19 kts 240°
2026-04-30 22:08 19.43442 -99.08071 7307 ft 19 kts 239°
2026-04-30 22:09 19.43405 -99.08138 7307 ft 19 kts 239°
2026-04-30 22:09 19.43336 -99.08260 7307 ft 19 kts 238°
2026-04-30 22:10 19.43266 -99.08381 7307 ft 19 kts 239°
2026-04-30 22:10 19.43198 -99.08503 7307 ft 19 kts 239°
2026-04-30 22:10 19.43131 -99.08623 7307 ft 19 kts 239°
2026-04-30 22:10 19.43063 -99.08745 7307 ft 19 kts 239°
2026-04-30 22:11 19.42925 -99.08987 7307 ft 19 kts 234°
2026-04-30 22:11 19.42876 -99.09035 7307 ft 0 kts 212°
2026-04-30 22:14 19.42858 -99.09047 7307 ft 12 kts 211°
2026-04-30 22:15 19.42778 -99.09076 7307 ft 5 kts 152°
2026-04-30 22:15 19.42778 -99.09019 7307 ft 9 kts 62°
2026-04-30 22:15 19.42843 -99.08901 7307 ft 48 kts 60°
2026-04-30 22:15 19.43169 -99.08317 7312 ft 134 kts 59°
2026-04-30 22:16 19.43781 -99.07255 7388 ft 196 kts 61°
2026-04-30 22:16 19.44513 -99.05919 7955 ft 225 kts 64°
2026-04-30 22:17 19.46852 -99.00808 10169 ft 285 kts 59°
2026-04-30 22:17 19.48023 -98.99022 10622 ft 302 kts 56°
2026-04-30 22:17 19.50421 -98.95258 12077 ft 310 kts 57°
2026-04-30 22:18 19.51568 -98.93317 12941 ft 312 kts 58°
2026-04-30 22:18 19.53669 -98.89292 14488 ft 315 kts 70°
2026-04-30 22:19 19.54837 -98.84738 16022 ft 322 kts 75°
2026-04-30 22:19 19.55373 -98.82460 16852 ft 324 kts 75°
2026-04-30 22:19 19.56558 -98.77800 18438 ft 330 kts 73°
2026-04-30 22:20 19.57178 -98.75438 19093 ft 335 kts 73°
2026-04-30 22:20 19.57399 -98.70477 19909 ft 357 kts 101°
2026-04-30 22:20 19.56845 -98.67826 20043 ft 379 kts 102°
2026-04-30 22:21 19.56244 -98.65023 20188 ft 401 kts 102°
2026-04-30 22:21 19.55628 -98.62110 20356 ft 418 kts 101°
2026-04-30 22:21 19.54995 -98.59055 20690 ft 430 kts 101°
2026-04-30 22:21 19.54360 -98.55932 21131 ft 436 kts 101°
2026-04-30 22:22 19.53724 -98.52772 21667 ft 440 kts 101°
2026-04-30 22:22 19.53087 -98.49590 22237 ft 443 kts 101°
2026-04-30 22:22 19.52447 -98.46387 22788 ft 446 kts 102°
2026-04-30 22:22 19.51800 -98.43156 23306 ft 450 kts 102°
2026-04-30 22:23 19.51146 -98.39894 23719 ft 454 kts 102°
2026-04-30 22:23 19.50494 -98.36649 24133 ft 458 kts 102°
2026-04-30 22:23 19.49830 -98.33341 24575 ft 461 kts 102°
2026-04-30 22:23 19.49161 -98.30005 24953 ft 465 kts 101°
2026-04-30 22:24 19.48484 -98.26630 25308 ft 470 kts 101°
2026-04-30 22:24 19.47802 -98.23232 25737 ft 473 kts 101°
2026-04-30 22:24 19.47115 -98.19816 26164 ft 475 kts 101°
2026-04-30 22:24 19.46423 -98.16379 26529 ft 480 kts 101°
2026-04-30 22:25 19.45722 -98.12902 26922 ft 484 kts 101°
2026-04-30 22:25 19.45028 -98.09459 27403 ft 485 kts 101°
2026-04-30 22:25 19.44321 -98.05955 27797 ft 489 kts 101°
2026-04-30 22:25 19.43605 -98.02415 28180 ft 493 kts 101°
2026-04-30 22:26 19.42556 -97.95218 29005 ft 498 kts 94°
2026-04-30 22:26 19.42245 -97.91547 29304 ft 502 kts 93°
2026-04-30 22:26 19.41964 -97.87848 29720 ft 505 kts 93°
2026-04-30 22:27 19.41670 -97.84135 30052 ft 507 kts 94°
2026-04-30 22:27 19.41337 -97.80405 30351 ft 510 kts 96°
2026-04-30 22:27 19.39540 -97.73161 30925 ft 517 kts 111°
2026-04-30 22:28 19.36200 -97.66385 31464 ft 521 kts 120°
2026-04-30 22:28 19.34339 -97.63110 31913 ft 518 kts 121°
2026-04-30 22:29 19.28783 -97.53313 33297 ft 512 kts 120°
2026-04-30 22:29 19.26980 -97.50095 33867 ft 509 kts 120°
2026-04-30 22:30 19.19791 -97.37184 35131 ft 511 kts 120°
2026-04-30 22:31 19.14387 -97.27496 36282 ft 509 kts 120°
2026-04-30 22:32 19.09027 -97.17908 37342 ft 506 kts 120°
2026-04-30 22:32 19.05441 -97.11502 37962 ft 506 kts 120°
2026-04-30 22:33 19.00071 -97.01921 38871 ft 504 kts 120°
2026-04-30 22:33 18.96503 -96.95563 39390 ft 501 kts 119°
2026-04-30 22:34 18.91209 -96.86142 40130 ft 500 kts 120°
2026-04-30 22:35 18.87652 -96.79869 40636 ft 496 kts 120°
2026-04-30 22:36 18.78784 -96.64186 40674 ft 494 kts 120°
2026-04-30 22:37 18.71776 -96.51771 40653 ft 492 kts 120°